Voltar ao catálogo

STARLINK-3173

AtivoComunicaçõesVLEO
NORAD 51111·PAYLOAD·🇺🇸 United States

Lançado Jan 19, 2022 de Cape Canaveral Space Force Station

Loading…

Próximas Passagens (próximas 24 horas)

TLE

AtualizadoSource: CelesTrak SupGP

Época: Sep 15, 2026, 02:46 UTC

1 51111C 22005H   26258.11576389  .00046151  00000+0  13208-2 0  2581
2 51111  53.1583 149.2673 0001281  83.7855 101.0419 15.35367289    12

Acompanhe STARLINK-3173 em tempo real com AllMySat

Download on the App Store